2019-038F (44419 NORAD) Tracking and Keplerian Element Data

This shows tracking and keplerian element data for the satellite.

Feedback or suggestion? Click here.




ElementValue
Catalog44419
Name2019-038F
Epoch Orbit233
Epoch Day201.91603422
Epoch Year2019
RAAN163.5768
Inclination97.4909
Eccentricity0.0021355
Argument of Perigee192.6815
Mean Anonmoly167.3881
Mean Motion15.12248674
Decay Rate4.21E-06
L11 44419U 19038F 19201.91603422 .00000421 00000-0 27966-4 0 9994
L22 44419 97.4909 163.5768 0021355 192.6815 167.3881 15.12248674 2338

Live tracking and technical data element details for 2019-038F (NORAD 44419). 2019-038F can be tracked NOW for your location showing map with azimuth and elevation plus other details from your city location.

Track the satellite on the map from your city or location and see movement details for azimuth, elevation, latitude, longitude, range, height, and movement on the map or in text.







IsCatalogInMostPopularTable: catalog: 44419, numindb: 5
Update: records affected: 1



GetName: 44419 2019-038F

Hit Count: updated at: Sun, 21 Jul 2019 21:04:15 GMT